Location: Tauranga
(37.6860°S, 176.1670°E)
Time: 18:18:24
(UTC+13:00)

Cosmos 1386 Rocket - Pass Details

Date: 24 January 2019
Orbit: 930 x 1005 km, 83.0° (Epoch: 15 February)

Event Time Altitude Azimuth Distance (km) Brightness Sun altitude
Exits shadow 23:09:17 38° 343° (NNW) 1,425 5.0 -24.5°
Maximum altitude 23:11:47 78° 264° (W) 985 4.5 -24.8°
Drops below altitude 10° 23:17:57 10° 176° (S) 2,688 7.5 -25.5°
Sets 23:20:27 0° 174° (S) 3,632 8.2 -25.7°
